Weather History for Port Angeles, WA

Change the Weather History Date:

Saturday, December 21, 2013

  Actual Average Record
Temperature  
Mean Temperature 40 °F -  
Max Temperature 43 °F 43 °F 55 °F (1954)
Min Temperature 37 °F 33 °F 13 °F (1990)
Degree Days  
Heating Degree Days 25    
Moisture  
Dew Point 38 °F    
Average Humidity 93    
Maximum Humidity 100    
Minimum Humidity 82    
Precipitation  
Precipitation 0.09 in - - ()
Sea Level Pressure  
Sea Level Pressure 30.08 in    
Wind  
Wind Speed 4 mph (ESE)    
Max Wind Speed 9 mph    
Max Gust Speed -    
Visibility 6 miles    
Events Rain    
Averages and records for this station are not official NWS values.
T = Trace of Precipitation, MM = Missing Value Source: NWS Daily Summary

Daily Weather History Graph

Daily Weather History Graph

Search for Another Location

Airport:

Trip Planner

Search our weather history database for the weather conditions in past years. The results will help you decide how hot, cold, wet, or windy it might be!

Date:

Astronomy

Dec. 21, 2013 Rise Set
Actual Time 8:01 AM PST 4:22 PM PST
Civil Twilight 7:25 AM PST 4:59 PM PST
Nautical Twilight 6:45 AM PST 5:39 PM PST
Astronomical Twilight 6:07 AM PST 6:17 PM PST
Moon 9:02 PM PST (12/21) 10:14 AM PST (12/21)
Length of Visible Light 9h 34m
Length of Day
8h 21m
Waning Gibbous, 83% of the Moon is Illuminated
Dec 21
Waning Gibbous
Dec 25
Last Quarter
Jan 1
New
Jan 7
First Quarter
Jan 15
Full

Hourly Weather History & Observations

Time (PST) Temp. Windchill Dew Point Humidity Pressure Visibility Wind Dir Wind Speed Gust Speed Precip Events Conditions
12:08 AM 37.9 °F 35.5 °F 37.0 °F 97% 29.87 in 3.0 mi SE 3.5 mph - N/A   Overcast
12:53 AM 39.0 °F 36.8 °F 37.9 °F 96% 29.89 in 4.0 mi East 3.5 mph - N/A   Overcast
1:53 AM 39.0 °F 35.7 °F 37.0 °F 93% 29.92 in 5.0 mi ESE 4.6 mph - N/A   Overcast
2:53 AM 39.0 °F 33.4 °F 37.9 °F 96% 29.96 in 10.0 mi ESE 8.1 mph - N/A   Overcast
3:53 AM 39.0 °F 34.8 °F 37.9 °F 96% 29.97 in 5.0 mi ESE 5.8 mph - N/A   Overcast
4:53 AM 39.0 °F 34.8 °F 37.9 °F 96% 30.00 in 3.0 mi ESE 5.8 mph - N/A   Overcast
5:07 AM 39.0 °F 34.8 °F 37.0 °F 93% 29.99 in 2.5 mi ESE 5.8 mph - N/A   Overcast
5:38 AM 39.0 °F 34.8 °F 37.0 °F 93% 30.00 in 3.0 mi SE 5.8 mph - N/A   Overcast
5:50 AM 39.2 °F 35.0 °F 37.4 °F 93% 30.00 in 5.0 mi SE 5.8 mph - N/A   Overcast
5:53 AM 39.0 °F 34.0 °F 37.0 °F 93% 30.01 in 6.0 mi SE 6.9 mph - N/A   Overcast
6:53 AM 39.0 °F 35.7 °F 37.0 °F 93% 30.04 in 10.0 mi SE 4.6 mph - N/A   Overcast
7:18 AM 39.0 °F 34.8 °F 37.0 °F 93% 30.04 in 10.0 mi ESE 5.8 mph - N/A   Overcast
7:53 AM 39.0 °F 34.0 °F 37.0 °F 93% 30.05 in 10.0 mi ESE 6.9 mph - N/A   Overcast
8:12 AM 39.0 °F 34.0 °F 37.0 °F 93% 30.04 in 2.5 mi SE 6.9 mph - N/A   Overcast
8:22 AM 39.0 °F 34.8 °F 37.9 °F 96% 30.05 in 1.0 mi ESE 5.8 mph - N/A   Overcast
8:39 AM 39.0 °F 34.0 °F 37.9 °F 96% 30.06 in 3.0 mi ESE 6.9 mph - N/A   Overcast
8:53 AM 39.0 °F 34.0 °F 37.9 °F 96% 30.07 in 10.0 mi ESE 6.9 mph - N/A   Overcast
9:53 AM 39.9 °F 35.8 °F 39.0 °F 97% 30.09 in 8.0 mi East 5.8 mph - N/A   Overcast
10:53 AM 42.1 °F 37.7 °F 39.0 °F 89% 30.10 in 10.0 mi ESE 6.9 mph - N/A   Overcast
11:42 AM 43.0 °F 38.8 °F 39.0 °F 86% 30.09 in 10.0 mi ESE 6.9 mph - N/A   Overcast
11:51 AM 42.8 °F 37.5 °F 39.2 °F 87% 30.09 in 10.0 mi ESE 9.2 mph - N/A   Overcast
11:53 AM 43.0 °F 38.8 °F 39.0 °F 86% 30.09 in 10.0 mi ESE 6.9 mph - N/A   Overcast
12:53 PM 43.0 °F 39.5 °F 37.9 °F 82% 30.11 in 10.0 mi East 5.8 mph - N/A   Overcast
1:53 PM 43.0 °F - 37.9 °F 82% 30.11 in 10.0 mi Calm Calm - N/A   Overcast
2:33 PM 42.1 °F 40.2 °F 39.0 °F 89% 30.10 in 10.0 mi NE 3.5 mph - N/A   Overcast
2:53 PM 42.1 °F 40.2 °F 37.9 °F 85% 30.12 in 10.0 mi East 3.5 mph - N/A   Overcast
3:19 PM 42.1 °F - 37.9 °F 85% 30.13 in 10.0 mi Calm Calm - N/A   Overcast
3:53 PM 41.0 °F - 37.9 °F 89% 30.14 in 10.0 mi Calm Calm - 0.00 in Rain Light Rain
4:31 PM 41.0 °F - 39.0 °F 93% 30.13 in 2.5 mi Calm Calm - 0.00 in   Overcast
4:42 PM 41.0 °F - 39.0 °F 93% 30.13 in 1.5 mi Calm Calm - 0.00 in   Overcast
4:46 PM 41.0 °F - 39.0 °F 93% 30.13 in 3.0 mi Calm Calm - 0.00 in   Overcast
4:53 PM 41.0 °F - 39.0 °F 93% 30.13 in 10.0 mi Calm Calm - 0.00 in   Overcast
5:53 PM 39.9 °F - 39.0 °F 97% 30.13 in 6.0 mi Calm Calm - 0.00 in Rain Light Rain
6:19 PM 39.9 °F - 39.0 °F 97% 30.12 in 5.0 mi Calm Calm - 0.01 in Rain Light Rain
6:53 PM 39.9 °F - 39.0 °F 97% 30.13 in 3.0 mi Calm Calm - 0.01 in Rain Light Rain
7:04 PM 39.9 °F - 39.0 °F 97% 30.13 in 2.5 mi Calm Calm - 0.01 in Rain Light Rain
7:19 PM 41.0 °F - 39.0 °F 93% 30.14 in 4.0 mi Calm Calm - 0.01 in Rain Light Rain
7:53 PM 39.9 °F - 39.0 °F 97% 30.14 in 4.0 mi Calm Calm - 0.02 in Rain Light Rain
8:05 PM 39.9 °F - 39.0 °F 97% 30.13 in 2.5 mi Calm Calm - 0.00 in Rain Light Rain
8:25 PM 39.9 °F - 39.0 °F 97% 30.14 in 3.0 mi Calm Calm - 0.01 in Rain Light Rain
8:35 PM 39.9 °F - 39.0 °F 97% 30.14 in 5.0 mi Calm Calm - 0.01 in Rain Light Rain
8:53 PM 39.9 °F - 39.0 °F 97% 30.14 in 5.0 mi Calm Calm - 0.02 in Rain Light Rain
9:53 PM 39.9 °F - 39.0 °F 97% 30.16 in 4.0 mi Calm Calm - 0.02 in Rain Light Rain
10:45 PM 39.9 °F - 39.0 °F 97% 30.15 in 2.5 mi Calm Calm - 0.01 in Rain Light Rain
10:53 PM 39.9 °F - 39.0 °F 97% 30.16 in 3.0 mi Calm Calm - 0.01 in Rain Light Rain
11:49 PM 39.2 °F - 39.2 °F 100% 30.15 in 4.0 mi Calm Calm - 0.01 in Rain Light Rain
11:53 PM 39.9 °F - 39.0 °F 97% 30.15 in 4.0 mi Calm Calm - 0.01 in   Overcast